Regional Weather Roundup
Issued by NWS Glasgow, MT

Home | Current Version | Previous Version | Text Only | Print | Product List | Glossary On
Versions: 1 2 3 4 5 6 7 8 9 10 11 12 13 14 15 16 17 18 19 20 21 22 23 24 25 26 27 28 29 30 31 32 33 34 35 36 37 38 39 40 41 42 43 44 45 46 47 48 49 50
000
ASUS45 KGGW 030815
RWRGGW
HOURLY REGIONAL WEATHER ROUNDUP FOR NORTHEAST MONTANA
NATIONAL WEATHER SERVICE GLASGOW MONTANA
200 AM MDT FRI JUL 03 2015

NOTE: "FAIR" INDICATES FEW OR NO CLOUDS BELOW 12,000 FEET WITH NO
SIGNIFICANT WEATHER AND/OR OBSTRUCTIONS TO VISISBILITY.

NORTHEAST MONTANA


CITY           SKY/WX    TMP DP  RH WIND       PRES   REMARKS
GLASGOW        PTCLDY    63  55  75 E7        30.02S HAZE
PLENTYWOOD       N/A     61  56  83 W3          N/A
WOLF POINT     PTCLDY    63  59  87 CALM      30.02F FOG
JORDAN           N/A     58  53  84 CALM      30.04F
WINNETT          N/A     53  49  86 S1          N/A
SIDNEY         CLEAR     63  57  82 CALM      30.02S
GLENDIVE       CLEAR     61  55  82 NW6       30.05S
MALTA            N/A     62  57  83 NE1         N/A
SCOBEY           N/A     56  50  80 CALM      30.03S HAZE

FORT PECK REPORTS


CITY           SKY/WX    TMP DP  RH WIND       PRES   REMARKS
FORT PECK        N/A     68  58  70 E7          N/A
THE PINES        N/A     68  58  70 SW3         N/A

SOUTHEAST MONTANA


CITY           SKY/WX    TMP DP  RH WIND       PRES   REMARKS
BILLINGS       CLEAR     68  50  52 CALM      30.09F
MILES CITY     CLEAR     63  54  72 NW6       30.04S
BAKER          CLEAR     61  57  87 CALM      30.07F FOG
LIVINGSTON     CLEAR     65  50  58 SE7       30.12R

CENTRAL MONTANA


CITY           SKY/WX    TMP DP  RH WIND       PRES   REMARKS
HAVRE          CLEAR     66  53  63 NE6       29.99F HAZE
LEWISTOWN      MOCLDY    63  52  67 SE5       30.11S HAZE
GREAT FALLS    CLEAR     67  50  54 S5        30.02F
CUT BANK       CLEAR     66  48  52 SE7       30.03F
HELENA         CLEAR     71  48  43 W8        30.04R
BUTTE          CLEAR     63  42  46 S3        30.14F
BOZEMAN        CLEAR     62  50  64 NW9       30.08R

WESTERN MONTANA


CITY           SKY/WX    TMP DP  RH WIND       PRES   REMARKS
MISSOULA       CLEAR     68  48  48 NE3       29.99S
KALISPELL      NOT AVBL

NORTH DAKOTA


CITY           SKY/WX    TMP DP  RH WIND       PRES   REMARKS
WILLISTON      CLEAR     64  60  87 NE3       30.02S FOG
DICKINSON      CLEAR     59  56  89 SW3       30.03F FOG
MINOT          CLOUDY    63  60  90 SW9       29.97S FOG
BISMARCK       CLOUDY    64  62  93 W3        29.99S FOG

SOUTHERN SASKATCHEWAN


CITY           SKY/WX    TMP DP  RH WIND       PRES   REMARKS
REGINA         PTCLDY    59  57  94 VRB2      29.99F SMOKE
ESTEVAN        CLOUDY    59  59 100 SW2       30.01S SMOKE
SWIFT CURRENT  CLEAR     59  55  88 SW9       30.01F FOG



USA.gov is the U.S. government's official web portal to all federal, state and local government web resources and services.